When you browse on this site, cookies collect data to enhance your experience and personalize the content and advertising you see.
Visit our Privacy Policy to learn more. By continuing to use the site, you agree to this use of cookies and data.
  • In Slovakia
  • List of Countries
  • For 7 days
  • Water Temperature
  • Weather Map
  • Weather Widgets
  • user-avatar
    Login

    Hourly Weather Annaba

    Today, 26 February, Wednesday

    Time Temperature Precipitation Wind Pressure Humidity
    00:00 +12°C° 0 mm 4 mps 760 mmHg 63%
    01:00 +12°C° 0 mm 4 mps 760 mmHg 59%
    02:00 +12°C° 0 mm 4 mps 760 mmHg 63%
    03:00 +12°C° 0 mm 4 mps 759 mmHg 66%
    04:00 +12°C° 0 mm 5 mps 759 mmHg 69%
    05:00 +12°C° 0 mm 4 mps 759 mmHg 71%
    06:00 +11°C° 0 mm 4 mps 759 mmHg 73%
    07:00 +11°C° 0 mm 4 mps 759 mmHg 73%
    08:00 +13°C° 0 mm 4 mps 759 mmHg 71%
    09:00 +14°C° 0 mm 4 mps 760 mmHg 69%
    10:00 +17°C° 0 mm 4 mps 760 mmHg 67%
    11:00 +17°C° 0 mm 5 mps 760 mmHg 65%
    12:00 +19°C° 0 mm 6 mps 760 mmHg 62%
    13:00 +20°C° 0 mm 6 mps 759 mmHg 59%
    14:00 +18°C° 0 mm 7 mps 759 mmHg 60%
    15:00 +18°C° 0 mm 7 mps 759 mmHg 62%
    16:00 +18°C° 0 mm 7 mps 759 mmHg 63%
    17:00 +16°C° 0 mm 6 mps 759 mmHg 71%
    18:00 +15°C° 0 mm 5 mps 760 mmHg 78%
    19:00 +13°C° 0 mm 4 mps 760 mmHg 85%
    20:00 +13°C° 0 mm 4 mps 761 mmHg 86%
    21:00 +12°C° 0 mm 4 mps 762 mmHg 87%
    22:00 +12°C° 0 mm 4 mps 762 mmHg 88%
    23:00 +11°C° 0.1 mm 4 mps 763 mmHg 88%

    Tomorrow, 27 February, Thursday

    Time Temperature Precipitation Wind Pressure Humidity
    00:00 +11°C° 0.1 mm 4 mps 763 mmHg 87%
    01:00 +11°C° 0.1 mm 3 mps 763 mmHg 87%
    02:00 +11°C° 0.1 mm 3 mps 763 mmHg 86%
    03:00 +12°C° 0.1 mm 2 mps 763 mmHg 85%
    04:00 +12°C° 0.1 mm 2 mps 763 mmHg 84%
    05:00 +10°C° 0.1 mm 2 mps 763 mmHg 84%
    06:00 +10°C° 0.1 mm 2 mps 763 mmHg 83%
    07:00 +10°C° 0.1 mm 2 mps 764 mmHg 83%
    08:00 +11°C° 0 mm 3 mps 764 mmHg 78%
    09:00 +13°C° 0 mm 3 mps 764 mmHg 73%
    10:00 +14°C° 0 mm 3 mps 764 mmHg 68%
    11:00 +16°C° 0 mm 3 mps 764 mmHg 62%
    12:00 +17°C° 0 mm 3 mps 764 mmHg 57%
    13:00 +18°C° 0 mm 4 mps 763 mmHg 51%
    14:00 +18°C° 0 mm 4 mps 763 mmHg 51%
    15:00 +18°C° 0 mm 4 mps 763 mmHg 51%
    16:00 +18°C° 0 mm 3 mps 762 mmHg 51%
    17:00 +16°C° 0 mm 3 mps 762 mmHg 58%
    18:00 +15°C° 0 mm 2 mps 763 mmHg 65%
    19:00 +13°C° 0 mm 1 mps 763 mmHg 71%
    20:00 +13°C° 0 mm 2 mps 763 mmHg 71%
    21:00 +12°C° 0 mm 2 mps 764 mmHg 71%
    22:00 +12°C° 0 mm 2 mps 764 mmHg 70%
    23:00 +11°C° 0 mm 3 mps 764 mmHg 70%

    Day after tomorrow, 28 February, Friday

    Time Temperature Precipitation Wind Pressure Humidity
    00:00 +11°C° 0 mm 3 mps 764 mmHg 70%
    01:00 +11°C° 0 mm 3 mps 764 mmHg 70%
    02:00 +11°C° 0 mm 3 mps 764 mmHg 69%
    03:00 +11°C° 0 mm 3 mps 763 mmHg 68%
    04:00 +11°C° 0 mm 3 mps 763 mmHg 67%
    05:00 +11°C° 0 mm 3 mps 763 mmHg 65%
    06:00 +11°C° 0 mm 3 mps 763 mmHg 64%
    07:00 +11°C° 0 mm 3 mps 763 mmHg 63%
    08:00 +13°C° 0 mm 3 mps 764 mmHg 58%
    09:00 +16°C° 0 mm 3 mps 764 mmHg 53%
    10:00 +19°C° 0 mm 3 mps 764 mmHg 49%
    11:00 +20°C° 0 mm 4 mps 764 mmHg 47%
    12:00 +21°C° 0 mm 4 mps 764 mmHg 45%
    13:00 +22°C° 0 mm 4 mps 764 mmHg 43%
    14:00 +21°C° 0 mm 5 mps 763 mmHg 46%
    15:00 +21°C° 0 mm 5 mps 763 mmHg 49%
    16:00 +20°C° 0 mm 5 mps 763 mmHg 52%
    17:00 +18°C° 0 mm 4 mps 763 mmHg 63%
    18:00 +16°C° 0 mm 3 mps 763 mmHg 74%
    19:00 +14°C° 0 mm 1 mps 763 mmHg 86%
    20:00 +14°C° 0 mm 1 mps 763 mmHg 85%
    21:00 +13°C° 0 mm 2 mps 764 mmHg 84%
    22:00 +13°C° 0 mm 2 mps 764 mmHg 83%
    23:00 +13°C° 0 mm 2 mps 763 mmHg 81%

    29 February, Saturday

    Time Temperature Precipitation Wind Pressure Humidity
    00:00 +13°C° 0 mm 2 mps 763 mmHg 79%
    01:00 +12°C° 0 mm 2 mps 763 mmHg 77%
    02:00 +13°C° 0 mm 2 mps 762 mmHg 73%
    03:00 +13°C° 0 mm 2 mps 761 mmHg 69%
    04:00 +12°C° 0 mm 3 mps 761 mmHg 65%
    05:00 +12°C° 0 mm 3 mps 761 mmHg 63%
    06:00 +12°C° 0 mm 3 mps 760 mmHg 61%
    07:00 +12°C° 0 mm 3 mps 760 mmHg 59%
    08:00 +15°C° 0 mm 2 mps 760 mmHg 55%
    09:00 +18°C° 0 mm 2 mps 760 mmHg 50%
    10:00 +20°C° 0 mm 2 mps 760 mmHg 46%
    11:00 +23°C° 0 mm 2 mps 759 mmHg 42%
    12:00 +24°C° 0 mm 2 mps 759 mmHg 39%
    13:00 +26°C° 0 mm 2 mps 759 mmHg 36%
    14:00 +26°C° 0 mm 2 mps 759 mmHg 39%
    15:00 +25°C° 0 mm 2 mps 758 mmHg 41%
    16:00 +25°C° 0 mm 3 mps 758 mmHg 44%
    17:00 +21°C° 0 mm 2 mps 758 mmHg 49%
    18:00 +19°C° 0 mm 2 mps 758 mmHg 53%
    19:00 +17°C° 0 mm 2 mps 759 mmHg 58%
    20:00 +16°C° 0 mm 2 mps 759 mmHg 58%
    21:00 +16°C° 0 mm 2 mps 759 mmHg 59%
    22:00 +15°C° 0 mm 2 mps 760 mmHg 59%
    23:00 +15°C° 0 mm 2 mps 760 mmHg 59%

    1 March, Sunday

    Time Temperature Precipitation Wind Pressure Humidity
    00:00 +15°C° 0 mm 2 mps 760 mmHg 58%
    01:00 +15°C° 0 mm 2 mps 760 mmHg 58%
    02:00 +14°C° 0 mm 3 mps 759 mmHg 58%
    03:00 +13°C° 0 mm 3 mps 759 mmHg 58%
    04:00 +13°C° 0 mm 3 mps 759 mmHg 58%
    05:00 +13°C° 0 mm 3 mps 759 mmHg 60%
    06:00 +13°C° 0 mm 3 mps 759 mmHg 61%
    07:00 +12°C° 0 mm 3 mps 759 mmHg 62%
    08:00 +14°C° 0 mm 3 mps 760 mmHg 58%
    09:00 +17°C° 0 mm 2 mps 760 mmHg 54%
    10:00 +20°C° 0 mm 2 mps 760 mmHg 50%
    11:00 +20°C° 0 mm 3 mps 760 mmHg 50%
    12:00 +21°C° 0 mm 3 mps 760 mmHg 49%
    13:00 +21°C° 0 mm 4 mps 759 mmHg 49%
    14:00 +21°C° 0 mm 4 mps 759 mmHg 54%
    15:00 +20°C° 0 mm 5 mps 759 mmHg 60%
    16:00 +19°C° 0 mm 5 mps 758 mmHg 65%
    17:00 +18°C° 0 mm 4 mps 759 mmHg 70%
    18:00 +17°C° 0 mm 3 mps 759 mmHg 75%
    19:00 +16°C° 0 mm 2 mps 760 mmHg 80%
    20:00 +14°C° 0 mm 3 mps 760 mmHg 82%
    21:00 +14°C° 0 mm 3 mps 760 mmHg 83%
    22:00 +13°C° 0 mm 3 mps 761 mmHg 84%
    23:00 +13°C° 0 mm 3 mps 761 mmHg 83%

    2 March, Monday

    Time Temperature Precipitation Wind Pressure Humidity
    00:00 +13°C° 0 mm 3 mps 761 mmHg 82%
    01:00 +13°C° 0 mm 3 mps 760 mmHg 81%
    02:00 +13°C° 0 mm 3 mps 760 mmHg 81%
    03:00 +13°C° 0 mm 3 mps 760 mmHg 81%
    04:00 +12°C° 0 mm 3 mps 759 mmHg 81%
    05:00 +12°C° 0 mm 3 mps 759 mmHg 80%
    06:00 +13°C° 0 mm 3 mps 759 mmHg 79%
    07:00 +13°C° 0 mm 3 mps 759 mmHg 77%
    08:00 +16°C° 0 mm 2 mps 759 mmHg 71%
    09:00 +17°C° 0 mm 2 mps 758 mmHg 64%
    10:00 +19°C° 0 mm 2 mps 758 mmHg 58%
    11:00 +20°C° 0 mm 2 mps 757 mmHg 55%
    12:00 +21°C° 0 mm 2 mps 757 mmHg 52%
    13:00 +23°C° 0 mm 2 mps 756 mmHg 49%
    14:00 +22°C° 0 mm 4 mps 756 mmHg 50%
    15:00 +21°C° 0 mm 5 mps 755 mmHg 50%
    16:00 +21°C° 0 mm 7 mps 755 mmHg 51%
    17:00 +19°C° 0.3 mm 5 mps 755 mmHg 63%
    18:00 +17°C° 0.3 mm 4 mps 755 mmHg 74%
    19:00 +14°C° 0.3 mm 3 mps 755 mmHg 85%
    20:00 +14°C° 0.2 mm 3 mps 755 mmHg 85%
    21:00 +14°C° 0.2 mm 3 mps 754 mmHg 84%
    22:00 +14°C° 0.2 mm 3 mps 754 mmHg 83%
    23:00 +14°C° 0.6 mm 5 mps 754 mmHg 84%
    Show more